[[{"header":{"parameterUnit":"m.s-1","parameterCategory":1,"la1":30.2991,"la2":30.254,"lo1":-89.0895,"lo2":-89.0444,"dy":0.0017,"dx":0.0017,"nx":28,"ny":28,"refTime":"2024-04-24T21:00:00:Z","depth":0,"parameterNumber":2,"parameterNumberName":"U-component_of_WINDS"},"data":[0,0,0,0,0,0,0,0,0,0,0,0,0,0,0,0,0,0,0,0,0,0,0,0,0,0,0,0,0,0,0,0,0,0,0,0,0,0,0,0,0,0,0,0,0,0,0,0,0,0,0,0,0,0,0,0,0,0,-1.3905,-1.3905,0,-1.3825,-1.3824,-1.3823,-1.3761,-1.376,-1.376,-1.3759,-1.3674,-1.3673,-1.3671,0,0,0,0,0,0,0,0,0,0,0,0,0,-1.4005,-1.4004,-1.3906,-1.3905,-1.3904,-1.3825,-1.3824,-1.3822,-1.3761,-1.376,-1.3759,-1.3759,-1.3675,-1.3673,-1.3671,0,0,0,0,0,0,0,0,0,0,0,0,0,-1.3947,-1.4003,-1.3906,-1.3863,-1.3859,-1.3825,-1.3824,-1.3822,-1.3761,-1.376,-1.3759,-1.3758,-1.3676,-1.3673,-1.367,-1.3672,0,0,-1.3663,-1.3661,0,0,0,0,0,0,0,0,-1.395,-1.3943,-1.3871,-1.3866,-1.3861,-1.3802,-1.3828,-1.3772,-1.3761,-1.3798,-1.3759,-1.3758,-1.3717,-1.3711,-1.3698,-1.3668,-1.3664,-1.3662,-1.3661,-1.366,-1.3659,0,0,0,0,0,0,0,-1.3955,-1.3947,-1.3873,-1.387,-1.3864,-1.3848,-1.3839,-1.3817,-1.3763,-1.3795,-1.379,-1.3781,-1.3715,-1.3701,-1.3695,-1.3663,-1.3662,-1.366,-1.3659,-1.3658,-1.363,-1.3631,0,0,0,0,0,0,-1.3965,-1.395,-1.3876,-1.3871,-1.3905,-1.3847,-1.3836,-1.3822,-1.3764,-1.3754,-1.3782,-1.3779,-1.3705,-1.3699,-1.3692,-1.369,-1.366,-1.3657,-1.3656,-1.3629,-1.363,-1.3631,0,0,0,0,0,0,-1.3968,-1.3959,-1.3879,-1.3909,-1.3898,-1.3846,-1.383,-1.3821,-1.3806,-1.3754,-1.3744,-1.3778,-1.3704,-1.3696,-1.3677,-1.3686,-1.3656,-1.3654,-1.3628,-1.3629,-1.363,-1.3685,0,0,0,0,0,0,-1.3971,-1.3961,-1.3961,-1.391,-1.3897,-1.3867,-1.383,-1.382,-1.3802,-1.3797,-1.3747,-1.3738,-1.3703,-1.3682,-1.3675,-1.3682,-1.3652,-1.3627,-1.3629,-1.363,-1.3683,-1.3688,-1.3693,0,0,0,0,0,-1.3975,-1.3979,-1.3961,-1.3953,-1.3896,-1.3867,-1.3859,-1.3819,-1.3803,-1.3803,-1.3769,-1.374,-1.3686,-1.368,-1.3672,-1.3679,-1.3626,-1.3628,-1.363,-1.368,-1.3687,-1.3693,0,0,0,0,0,0,-1.4032,-1.3972,-1.3951,-1.3939,-1.3909,-1.3857,-1.3855,-1.3828,-1.3801,-1.3797,-1.3748,-1.3738,-1.3725,-1.37,-1.3694,-1.3677,-1.3653,-1.3653,-1.3694,-1.37,-1.3705,-1.3711,-1.365,0,0,0,0,0,-1.4043,-1.4025,-1.3973,-1.3968,-1.3954,-1.3907,-1.3893,-1.3865,-1.3831,-1.3818,-1.3783,-1.3751,-1.3727,-1.3712,-1.3687,-1.3679,-1.3667,-1.3679,-1.3685,-1.3689,-1.369,-1.3684,-1.3688,-1.3637,-1.3637,-1.3637,0,0,-1.4066,-1.4031,-1.4023,-1.3979,-1.3952,-1.3934,-1.3897,-1.3879,-1.3866,-1.3815,-1.3796,-1.3769,-1.373,-1.3717,-1.3709,-1.3696,-1.3702,-1.3692,-1.3696,-1.3694,-1.3686,-1.3691,-1.3695,-1.3638,-1.3638,-1.3638,0,0,-1.4099,-1.4071,-1.4063,-1.4037,-1.3997,-1.3966,-1.3965,-1.3917,-1.3897,-1.3877,-1.3839,-1.3822,-1.3781,-1.3755,-1.3736,-1.376,-1.3732,-1.3753,-1.3781,-1.3775,-1.3779,-1.3783,-1.3791,-1.3794,-1.3754,-1.3754,-1.3754,0,-1.4133,-1.4105,-1.4063,-1.4048,-1.4029,-1.3984,-1.3976,-1.3952,-1.3906,-1.3894,-1.388,-1.3828,-1.3799,-1.3779,-1.3785,-1.3771,-1.3767,-1.3758,-1.3782,-1.3785,-1.3788,-1.3795,-1.3798,-1.3757,-1.3757,-1.3756,-1.3756,0,-1.4148,-1.4129,-1.4127,-1.4085,-1.4066,-1.4055,-1.4011,-1.3997,-1.3971,-1.3941,-1.3922,-1.3885,-1.3851,-1.3845,-1.3818,-1.3821,-1.3814,-1.3792,-1.3766,-1.3796,-1.3802,-1.3805,-1.3761,-1.376,-1.3759,-1.3759,0,0,-1.4214,-1.4148,-1.4149,-1.4129,-1.4081,-1.4066,-1.4052,-1.402,-1.401,-1.3979,-1.3966,-1.3934,-1.3913,-1.3892,-1.3862,-1.3858,-1.3879,-1.3836,-1.3834,-1.3845,-1.3879,-1.3895,-1.3899,-1.386,-1.386,-1.386,-1.3882,0,-1.4239,-1.4212,-1.4175,-1.4161,-1.4143,-1.4099,-1.4087,-1.4057,-1.4029,-1.4009,-1.3978,-1.3956,-1.393,-1.3917,-1.3911,-1.3878,-1.3885,-1.3875,-1.3846,-1.3846,-1.3857,-1.3902,-1.392,-1.3942,-1.3884,-1.3884,-1.3884,0,-1.4265,-1.4237,-1.4222,-1.4176,-1.4167,-1.4158,-1.4125,-1.4107,-1.4072,-1.4052,-1.4029,-1.3997,-1.398,-1.3958,-1.3933,-1.3928,-1.3914,-1.3896,-1.3895,-1.3891,-1.3867,-1.3899,-1.3948,-1.3951,-1.3888,-1.3887,-1.3887,0,-1.4314,-1.4274,-1.4259,-1.4244,-1.419,-1.4184,-1.4162,-1.4125,-1.4109,-1.408,-1.4069,-1.4039,-1.4022,-1.4,-1.396,-1.3948,-1.394,-1.3914,-1.3922,-1.3924,-1.3922,-1.3923,-1.397,-1.3914,-1.3914,-1.3914,-1.3914,0,-1.4346,-1.4338,-1.4281,-1.4272,-1.4262,-1.4218,-1.4209,-1.4182,-1.4151,-1.4135,-1.4096,-1.4082,-1.4032,-1.4012,-1.3981,-1.3965,-1.3958,-1.3941,-1.3933,-1.3945,-1.3947,-1.3934,-1.3932,-1.3915,-1.3915,-1.3915,-1.3914,0,-1.44,-1.4361,-1.4342,-1.4293,-1.4281,-1.4276,-1.4234,-1.4223,-1.4193,-1.4174,-1.4167,-1.412,-1.4095,-1.4054,-1.4016,-1.3996,-1.3985,-1.3972,-1.3998,-1.3993,-1.4003,-1.4003,-1.4043,-1.4046,-1.399,-1.399,-1.3991,0,-1.4423,-1.4416,-1.4366,-1.4354,-1.4333,-1.4313,-1.4295,-1.4252,-1.4236,-1.4195,-1.419,-1.4162,-1.4137,-1.4098,-1.406,-1.4032,-1.4017,-1.4033,-1.4012,-1.4024,-1.4017,-1.4017,-1.4016,-1.4038,-1.4039,-1.4039,-1.404,0,-1.4467,-1.4448,-1.4426,-1.4397,-1.4378,-1.4352,-1.4325,-1.4317,-1.4267,-1.4251,-1.4225,-1.4206,-1.4168,-1.414,-1.4106,-1.4082,-1.4053,-1.4047,-1.4047,-1.4059,-1.4074,-1.4066,-1.4011,-1.4046,-1.4046,-1.4045,-1.4045,-1.4044,-1.4506,-1.4498,-1.4462,-1.4438,-1.4413,-1.4388,-1.4376,-1.4345,-1.4323,-1.4289,-1.4265,-1.4241,-1.4205,-1.4156,-1.4134,-1.4114,-1.4101,-1.4101,-1.4101,-1.4102,-1.4106,-1.4078,-1.4107,-1.4107,-1.4107,-1.4107,-1.4106,0,-1.4548,-1.4523,-1.4502,-1.4465,-1.4446,-1.4421,-1.4389,-1.4375,-1.4355,-1.4324,-1.4301,-1.4271,-1.4244,-1.4204,-1.4174,-1.4166,-1.4151,-1.4159,-1.4159,-1.4154,-1.412,-1.4122,-1.4171,-1.4171,-1.4171,-1.4171,-1.4171,-1.4171,-1.4568,-1.4553,-1.453,-1.4502,-1.4477,-1.4453,-1.4437,-1.4414,-1.439,-1.4359,-1.4336,-1.4311,-1.4276,-1.4244,-1.4218,-1.4206,-1.4197,-1.4209,-1.4194,-1.4162,-1.4156,-1.4151,-1.4153,-1.4207,-1.4207,-1.4229,-1.423,-1.423]},{"header":{"parameterUnit":"m.s-1","parameterCategory":1,"la1":30.2991,"la2":30.254,"lo1":-89.0895,"lo2":-89.0444,"dy":0.0017,"dx":0.0017,"nx":28,"ny":28,"refTime":"2024-04-24T21:00:00:Z","depth":0,"parameterNumber":3,"parameterNumberName":"V-component_of_WINDS"},"data":[0,0,0,0,0,0,0,0,0,0,0,0,0,0,0,0,0,0,0,0,0,0,0,0,0,0,0,0,0,0,0,0,0,0,0,0,0,0,0,0,0,0,0,0,0,0,0,0,0,0,0,0,0,0,0,0,0,0,4.0197,4.0197,0,4.0117,4.0116,4.0115,4.0011,4.0009,4.0007,4.0006,3.992,3.992,3.9919,0,0,0,0,0,0,0,0,0,0,0,0,0,4.0259,4.0258,4.0198,4.0197,4.0196,4.0117,4.0116,4.0115,4.0011,4.0009,4.0007,4.0005,3.9921,3.992,3.9919,0,0,0,0,0,0,0,0,0,0,0,0,0,4.0211,4.0258,4.0198,4.0134,4.0128,4.0117,4.0116,4.0115,4.0011,4.0009,4.0006,4.0004,3.9921,3.992,3.9919,3.9964,0,0,3.9916,3.9915,0,0,0,0,0,0,0,0,4.0213,4.0208,4.0144,4.0139,4.0131,4.0071,4.0106,4.0064,4.0012,4.0055,4.0005,4.0003,3.9972,3.9967,3.9957,3.996,3.9956,3.9916,3.9915,3.9914,3.9914,0,0,0,0,0,0,0,4.0217,4.0211,4.0166,4.0144,4.0136,4.0109,4.0099,4.0098,4.0029,4.0051,4.0044,4.0036,3.9968,3.9959,3.9955,3.9955,3.9916,3.9915,3.9914,3.9914,3.9989,3.9992,0,0,0,0,0,0,4.023,4.0215,4.0168,4.0163,4.0167,4.011,4.0099,4.0093,4.0029,4.0017,4.0038,4.0031,3.9962,3.9956,3.9951,3.9999,3.9914,3.9914,3.9913,3.9987,3.999,3.9993,0,0,0,0,0,0,4.0232,4.0227,4.0171,4.0187,4.0178,4.0112,4.0106,4.0093,4.0083,4.0019,4.0006,4.0041,3.9959,3.9953,3.9961,3.9995,3.9913,3.9912,3.9984,3.9988,3.9991,4.0096,0,0,0,0,0,0,4.0234,4.0228,4.0245,4.0188,4.0177,4.0184,4.0108,4.0093,4.0082,4.0072,4.0018,4.0007,3.9957,3.9964,3.9961,3.9992,3.9911,3.998,3.9985,3.999,4.0089,4.0103,4.0115,0,0,0,0,0,4.0237,4.0277,4.0246,4.0241,4.0197,4.0186,4.018,4.0123,4.0085,4.0101,4.006,4.0008,3.9992,3.9965,3.9961,3.9993,3.9978,3.9984,3.999,4.0084,4.0101,4.0115,0,0,0,0,0,0,4.0338,4.0268,4.0234,4.0257,4.0229,4.0169,4.0187,4.0142,4.0123,4.0115,4.0044,4.0032,4.005,4.0022,3.9994,4.0033,3.9977,3.9983,4.005,4.0066,4.0078,4.0084,3.991,0,0,0,0,0,4.0364,4.0362,4.03,4.0327,4.0314,4.0254,4.0247,4.0205,4.0172,4.0159,4.0119,4.0088,4.0076,4.0069,4.0054,4.0085,4.0071,4.0105,4.0118,4.0128,4.0134,4.0148,4.0162,4.0012,4.0012,4.0012,0,0,4.0416,4.0377,4.038,4.0346,4.0319,4.0318,4.0244,4.0245,4.0243,4.0159,4.0165,4.0135,4.0096,4.0116,4.0122,4.0093,4.0172,4.0136,4.0145,4.0144,4.0155,4.0169,4.0182,4.0016,4.0015,4.0015,0,0,4.051,4.0481,4.05,4.0475,4.0435,4.0395,4.04,4.0347,4.0323,4.0329,4.0265,4.0262,4.0242,4.0217,4.0202,4.0288,4.024,4.0285,4.0352,4.0366,4.0378,4.0388,4.0418,4.043,4.029,4.0291,4.0291,0,4.0579,4.0576,4.0515,4.0521,4.0508,4.0433,4.0451,4.0429,4.0387,4.0379,4.0347,4.0322,4.029,4.0304,4.0325,4.0315,4.0318,4.029,4.0381,4.0391,4.0399,4.0427,4.0439,4.0296,4.0296,4.0295,4.0295,0,4.0663,4.0661,4.0681,4.0643,4.0632,4.0645,4.0586,4.0582,4.0542,4.0505,4.0511,4.0471,4.0446,4.0447,4.0407,4.0454,4.0437,4.0395,4.0337,4.042,4.0446,4.0456,4.0305,4.0303,4.0301,4.03,0,0,4.0818,4.0747,4.0756,4.0738,4.0689,4.0686,4.0695,4.0673,4.0671,4.0644,4.0649,4.0635,4.0595,4.0578,4.0535,4.0548,4.0619,4.0503,4.0501,4.0526,4.0668,4.0701,4.0714,4.0587,4.0589,4.059,4.0671,0,4.0902,4.0914,4.086,4.0886,4.0883,4.0813,4.082,4.0791,4.0757,4.0749,4.071,4.0702,4.065,4.0639,4.0649,4.0608,4.0646,4.0601,4.059,4.059,4.0602,4.0727,4.0761,4.084,4.0681,4.0682,4.0684,0,4.1002,4.0982,4.1008,4.0959,4.0956,4.0964,4.0939,4.0933,4.0898,4.0872,4.0854,4.0805,4.0809,4.0756,4.076,4.0731,4.0723,4.0703,4.0704,4.07,4.0642,4.0726,4.0863,4.0875,4.0698,4.0697,4.0696,0,4.1113,4.1092,4.1105,4.1092,4.1035,4.1042,4.1018,4.0981,4.0971,4.0949,4.0942,4.0921,4.0909,4.0894,4.084,4.0806,4.0851,4.0793,4.0829,4.083,4.0841,4.0841,4.0979,4.0837,4.0837,4.0837,4.0836,0,4.1212,4.1231,4.1154,4.1162,4.118,4.1118,4.1138,4.1107,4.1075,4.1075,4.1012,4.1014,4.0943,4.0936,4.0894,4.0904,4.0899,4.0878,4.0866,4.0883,4.0886,4.0877,4.087,4.084,4.0839,4.0838,4.0838,0,4.1338,4.1288,4.1297,4.1242,4.1229,4.1245,4.1198,4.1203,4.1165,4.1166,4.1163,4.1103,4.1092,4.1037,4.1013,4.0984,4.1009,4.0986,4.1021,4.1013,4.1053,4.105,4.1189,4.1204,4.1054,4.1055,4.1056,0,4.1405,4.1418,4.1365,4.1361,4.1341,4.1335,4.1325,4.1265,4.1257,4.1219,4.1228,4.1212,4.1196,4.1182,4.1136,4.1117,4.1093,4.1143,4.1089,4.1106,4.1093,4.1093,4.1094,4.1154,4.1156,4.1158,4.1159,0,4.1529,4.1503,4.1492,4.1472,4.1462,4.1443,4.1421,4.1421,4.1354,4.1348,4.1337,4.1325,4.13,4.1285,4.1259,4.1233,4.1185,4.1177,4.1184,4.1201,4.1221,4.121,4.1052,4.1173,4.1172,4.1171,4.117,4.1169,4.1627,4.1635,4.1599,4.1589,4.1566,4.1546,4.1548,4.1511,4.1501,4.1477,4.1442,4.1436,4.14,4.136,4.1339,4.1332,4.1305,4.1315,4.1318,4.1321,4.133,4.1223,4.1327,4.1326,4.1326,4.1325,4.1325,0,4.1747,4.1721,4.1712,4.1683,4.1675,4.1632,4.1604,4.16,4.1596,4.1567,4.1554,4.1541,4.1526,4.1479,4.1459,4.1463,4.1441,4.146,4.1459,4.1454,4.1356,4.1351,4.1479,4.1479,4.1478,4.1478,4.1478,4.1478,4.1809,4.182,4.1791,4.179,4.1764,4.1758,4.1746,4.1728,4.1705,4.1694,4.1682,4.1652,4.1616,4.1593,4.1578,4.1564,4.156,4.1587,4.1566,4.1475,4.146,4.1446,4.1442,4.1586,4.1586,4.1664,4.1665,4.1666]}]]